Beaufort, SC

7:44 PM EDT on August 19, 2017 (GMT -0400)
Beaufort

Weather History for KARW - April, 2014

Change the Weather History Date:

Wednesday, April 23, 2014

  Actual Average (KNBC) Record (KNBC)
Temperature  
Mean Temperature 72 °F -  
Max Temperature 84 °F 78 °F 89 °F (1961)
Min Temperature 60 °F 58 °F 42 °F (1986)
Cooling Degree Days 7    
Growing Degree Days 22 (Base 50)    
Moisture  
Dew Point 59 °F    
Average Humidity 72    
Maximum Humidity 100    
Minimum Humidity 32    
Precipitation  
Precipitation 0.00 in - - ()
Sea Level Pressure  
Sea Level Pressure 29.84 in    
Wind  
Wind Speed 8 mph (West)    
Max Wind Speed 13 mph    
Max Gust Speed 18 mph    
Visibility 7 miles    
Events      
Averages and records for this station are not official NWS values.
T = Trace of Precipitation, MM = Missing Value Source: NWS Daily Summary

Daily Weather History Graph

Daily Weather History Graph

Search for Another Location

Airport or City:

Trip Planner

Search our weather history database for the weather conditions in past years. The results will help you decide how hot, cold, wet, or windy it might be!

Date:

Astronomy

Apr. 23, 2014 Rise Set
Actual Time 6:44 AM EDT 7:57 PM EDT
Civil Twilight 6:18 AM EDT 8:23 PM EDT
Nautical Twilight 5:48 AM EDT 8:54 PM EDT
Astronomical Twilight 5:16 AM EDT 9:25 PM EDT
Moon 2:54 AM EDT (4/23) 2:24 PM EDT (4/23)
Length of Visible Light 14h 05m
Length of Day
13h 13m
Waning Crescent, 35% of the Moon is Illuminated
Apr 23
Waning Crescent
Apr 29
New
May 6
First Quarter
May 14
Full
May 21
Last Quarter

Hourly Weather History & Observations

Time (EDT) Temp. Heat Index Dew Point Humidity Pressure Visibility Wind Dir Wind Speed Gust Speed Precip Events Conditions
12:15 AM 64.4 °F - 62.6 °F 94% 29.81 in 7.0 mi West 6.9 mph - N/A   Overcast
12:35 AM 64.4 °F - 62.6 °F 94% 29.81 in 7.0 mi West 6.9 mph - N/A   Overcast
12:55 AM 64.4 °F - 62.6 °F 94% 29.81 in 7.0 mi West 8.1 mph - N/A   Scattered Clouds
1:15 AM 64.4 °F - 60.8 °F 88% 29.80 in 7.0 mi West 6.9 mph - N/A   Clear
1:35 AM 64.4 °F - 60.8 °F 88% 29.80 in 10.0 mi West 9.2 mph - N/A   Clear
1:55 AM 64.4 °F - 60.8 °F 88% 29.80 in 7.0 mi West 10.4 mph 17.3 mph N/A   Clear
2:15 AM 64.4 °F - 60.8 °F 88% 29.80 in 7.0 mi West 10.4 mph - N/A   Clear
2:35 AM 64.4 °F - 62.6 °F 94% 29.80 in 7.0 mi West 10.4 mph - N/A   Clear
2:55 AM 64.4 °F - 62.6 °F 94% 29.79 in 7.0 mi West 9.2 mph - N/A   Clear
3:15 AM 64.4 °F - 62.6 °F 94% 29.79 in 7.0 mi West 9.2 mph - N/A   Clear
3:35 AM 64.4 °F - 62.6 °F 94% 29.79 in 7.0 mi WSW 9.2 mph - N/A   Clear
3:55 AM 62.6 °F - 62.6 °F 100% 29.79 in 7.0 mi West 9.2 mph - N/A   Clear
4:15 AM 62.6 °F - 62.6 °F 100% 29.79 in 7.0 mi West 8.1 mph - N/A   Clear
4:35 AM 62.6 °F - 62.6 °F 100% 29.79 in 7.0 mi West 9.2 mph - N/A   Clear
4:55 AM 62.6 °F - 62.6 °F 100% 29.80 in 7.0 mi West 8.1 mph - N/A   Clear
5:15 AM 62.6 °F - 62.6 °F 100% 29.80 in 7.0 mi West 8.1 mph - N/A   Clear
5:35 AM 62.6 °F - 62.6 °F 100% 29.80 in 7.0 mi West 9.2 mph - N/A   Clear
5:55 AM 62.6 °F - 62.6 °F 100% 29.80 in 7.0 mi West 9.2 mph - N/A   Clear
6:15 AM 62.6 °F - 62.6 °F 100% 29.81 in 7.0 mi West 8.1 mph - N/A   Clear
6:35 AM 62.6 °F - 62.6 °F 100% 29.82 in 7.0 mi West 6.9 mph - N/A   Clear
6:55 AM 62.6 °F - 62.6 °F 100% 29.83 in 7.0 mi West 9.2 mph - N/A   Clear
7:15 AM 62.6 °F - 62.6 °F 100% 29.84 in 7.0 mi West 10.4 mph - N/A   Clear
7:35 AM 62.6 °F - 62.6 °F 100% 29.85 in 7.0 mi West 9.2 mph - N/A   Clear
7:55 AM 62.6 °F - 62.6 °F 100% 29.86 in 5.0 mi West 10.4 mph - N/A   Clear
8:15 AM 64.4 °F - 62.6 °F 94% 29.86 in 7.0 mi West 9.2 mph - N/A   Clear
8:35 AM 66.2 °F - 62.6 °F 88% 29.86 in 7.0 mi West 8.1 mph - N/A   Clear
8:55 AM 68.0 °F - 62.6 °F 83% 29.86 in 7.0 mi West 6.9 mph - N/A   Clear
9:15 AM 68.0 °F - 62.6 °F 83% 29.87 in 7.0 mi West 5.8 mph - N/A   Clear
9:35 AM 69.8 °F - 62.6 °F 78% 29.88 in 7.0 mi West 9.2 mph - N/A   Clear
9:55 AM 69.8 °F - 62.6 °F 78% 29.88 in 4.0 mi WNW 9.2 mph - N/A   Haze
10:15 AM 71.6 °F - 62.6 °F 73% 29.88 in 7.0 mi WNW 6.9 mph - N/A   Clear
10:35 AM 71.6 °F - 62.6 °F 73% 29.88 in 7.0 mi WNW 9.2 mph - N/A   Clear
10:55 AM 73.4 °F - 64.4 °F 73% 29.89 in 7.0 mi WNW 9.2 mph - N/A   Clear
11:15 AM 73.4 °F - 62.6 °F 69% 29.90 in 5.0 mi NW 9.2 mph - N/A   Haze
11:35 AM 75.2 °F - 64.4 °F 69% 29.89 in 5.0 mi WNW 9.2 mph - N/A   Haze
11:55 AM 77.0 °F - 64.4 °F 65% 29.88 in 7.0 mi West 9.2 mph - N/A   Clear
12:15 PM 77.0 °F - 64.4 °F 65% 29.88 in 7.0 mi West 9.2 mph - N/A   Clear
12:35 PM 77.0 °F - 62.6 °F 61% 29.88 in 7.0 mi NW 5.8 mph - N/A   Clear
1:15 PM 80.6 °F 81.5 °F 60.8 °F 51% 29.86 in 7.0 mi WNW 6.9 mph - N/A   Clear
1:35 PM 80.6 °F 81.5 °F 60.8 °F 51% 29.86 in 7.0 mi West 8.1 mph - N/A   Clear
1:55 PM 80.6 °F 81.5 °F 60.8 °F 51% 29.85 in 7.0 mi WNW 6.9 mph - N/A   Clear
2:15 PM 82.4 °F 82.9 °F 60.8 °F 48% 29.85 in 7.0 mi West 8.1 mph - N/A   Scattered Clouds
2:35 PM 82.4 °F 82.5 °F 59.0 °F 45% 29.84 in 7.0 mi WNW 12.7 mph 18.4 mph N/A   Scattered Clouds
2:55 PM 82.4 °F 83.4 °F 62.6 °F 51% 29.84 in 7.0 mi WSW 12.7 mph 17.3 mph N/A   Scattered Clouds
3:15 PM 82.4 °F 82.9 °F 60.8 °F 48% 29.83 in 7.0 mi West 12.7 mph 17.3 mph N/A   Scattered Clouds
3:35 PM 84.2 °F 83.8 °F 59.0 °F 42% 29.83 in 7.0 mi West 12.7 mph - N/A   Clear
3:55 PM 84.2 °F 83.8 °F 59.0 °F 42% 29.82 in 7.0 mi WSW 11.5 mph 17.3 mph N/A   Clear
4:15 PM 84.2 °F 83.5 °F 57.2 °F 40% 29.81 in 7.0 mi WSW 10.4 mph 17.3 mph N/A   Clear
4:35 PM 82.4 °F 81.7 °F 55.4 °F 39% 29.81 in 7.0 mi West 12.7 mph - N/A   Clear
4:55 PM 84.2 °F 83.0 °F 55.4 °F 37% 29.81 in 7.0 mi WNW 6.9 mph - N/A   Clear
5:15 PM 84.2 °F 82.8 °F 53.6 °F 35% 29.81 in 7.0 mi West 10.4 mph - N/A   Clear
5:35 PM 82.4 °F 81.4 °F 53.6 °F 37% 29.81 in 7.0 mi NW 4.6 mph - N/A   Clear
5:55 PM 82.4 °F - 51.8 °F 35% 29.81 in 7.0 mi West 11.5 mph - N/A   Clear
6:15 PM 82.4 °F - 50.0 °F 32% 29.81 in 7.0 mi WSW 9.2 mph - N/A   Clear
6:35 PM 82.4 °F - 50.0 °F 32% 29.82 in 7.0 mi West 10.4 mph - N/A   Clear
6:55 PM 80.6 °F - 50.0 °F 34% 29.82 in 7.0 mi West 8.1 mph - N/A   Clear
7:15 PM 80.6 °F - 50.0 °F 34% 29.83 in 7.0 mi West 8.1 mph - N/A   Clear
7:35 PM 78.8 °F - 51.8 °F 39% 29.83 in 5.0 mi West 5.8 mph - N/A   Haze
7:55 PM 73.4 °F - 51.8 °F 47% 29.84 in 10.0 mi West 3.5 mph - N/A   Clear
8:15 PM 71.6 °F - 51.8 °F 50% 29.84 in 10.0 mi Calm Calm - N/A   Clear
8:35 PM 69.8 °F - 55.4 °F 60% 29.85 in 10.0 mi Calm Calm - N/A   Clear
8:55 PM 68.0 °F - 53.6 °F 60% 29.86 in 10.0 mi Calm Calm - N/A   Clear
9:15 PM 66.2 °F - 51.8 °F 60% 29.88 in 7.0 mi SW 3.5 mph - N/A   Clear
9:35 PM 66.2 °F - 53.6 °F 64% 29.88 in 7.0 mi Calm Calm - N/A   Clear
9:55 PM 64.4 °F - 55.4 °F 73% 29.89 in 10.0 mi Calm Calm - N/A   Clear
10:15 PM 64.4 °F - 55.4 °F 73% 29.89 in 7.0 mi Calm Calm - N/A   Clear
10:35 PM 62.6 °F - 57.2 °F 82% 29.91 in 7.0 mi Calm Calm - N/A   Clear
10:55 PM 62.6 °F - 57.2 °F 82% 29.91 in 7.0 mi Calm Calm - N/A   Clear
11:15 PM 62.6 °F - 59.0 °F 88% 29.92 in 7.0 mi NNE 4.6 mph - N/A   Clear
11:35 PM 60.8 °F - 59.0 °F 94% 29.92 in 7.0 mi Calm Calm - N/A   Clear
11:55 PM 60.8 °F - 59.0 °F 94% 29.92 in 7.0 mi Calm Calm - N/A   Clear